Location: Deuil
(48.9767°N, 2.3272°E)
Time: 03:49:35
(UTC+00:00)

Cosmos 2360 Rocket - Pass Details

Date: 28 May 2022
Orbit: 832 x 846 km, 71.0° (Epoch: 03 July)

Event Time Altitude Azimuth Distance (km) Brightness Sun altitude
Exits shadow 22:50:09 14° 220° (SW) 2,180 4.0 -18.3°
Maximum altitude 22:55:01 67° 301° (WNW) 911 2.5 -18.5°
Drops below altitude 10° 23:00:40 10° 24° (NNE) 2,470 5.4 -18.7°
Sets 23:03:09 0° 28° (NNE) 3,410 6.2 -18.7°
